TimeEDT,TemperatureF,Dew PointF,Humidity,Sea Level PressureIn,VisibilityMPH,Wind Direction,Wind SpeedMPH,Gust SpeedMPH,PrecipitationIn,Events,Conditions,WindDirDegrees,DateUTC
12:15 AM,32.0,26.6,80,30.25,-9999.0,Calm,Calm,-,N/A,,Clear,0,2013-04-28 04:15:00
12:35 AM,32.0,26.6,80,30.25,-9999.0,Calm,Calm,-,N/A,,Clear,0,2013-04-28 04:35:00
12:55 AM,32.0,26.6,80,30.25,-9999.0,NNE,3.5,-,N/A,,Clear,20,2013-04-28 04:55:00
1:15 AM,33.8,24.8,70,30.26,10.0,Calm,Calm,-,N/A,,Clear,0,2013-04-28 05:15:00
1:35 AM,30.2,24.8,80,30.26,-9999.0,East,4.6,-,N/A,,Clear,100,2013-04-28 05:35:00
1:55 AM,30.2,24.8,80,30.25,10.0,WNW,3.5,-,N/A,,Clear,300,2013-04-28 05:55:00
2:15 AM,30.2,24.8,80,30.25,10.0,SW,3.5,-,N/A,,Clear,220,2013-04-28 06:15:00
2:35 AM,28.4,23.0,80,30.25,10.0,SSW,3.5,-,N/A,,Clear,210,2013-04-28 06:35:00
2:55 AM,28.4,24.8,86,30.25,10.0,Calm,Calm,-,N/A,,Clear,0,2013-04-28 06:55:00
3:15 AM,30.2,26.6,86,30.25,-9999.0,Calm,Calm,-,N/A,,Unknown,0,2013-04-28 07:15:00
3:35 AM,28.4,24.8,86,30.24,-9999.0,Calm,Calm,-,N/A,,Unknown,0,2013-04-28 07:35:00
3:55 AM,28.4,24.8,86,30.25,-9999.0,Calm,Calm,-,N/A,,Unknown,0,2013-04-28 07:55:00
4:15 AM,28.4,24.8,86,30.25,10.0,Calm,Calm,-,N/A,,Clear,0,2013-04-28 08:15:00
4:35 AM,28.4,24.8,86,30.25,10.0,Calm,Calm,-,N/A,,Clear,0,2013-04-28 08:35:00
4:55 AM,28.4,24.8,86,30.26,-9999.0,Calm,Calm,-,N/A,,Unknown,0,2013-04-28 08:55:00
5:35 AM,26.6,24.8,93,30.26,10.0,Calm,Calm,-,N/A,,Clear,0,2013-04-28 09:35:00
5:55 AM,26.6,24.8,93,30.26,-9999.0,Calm,Calm,-,N/A,,Unknown,0,2013-04-28 09:55:00
6:15 AM,28.4,24.8,86,30.26,-9999.0,Calm,Calm,-,N/A,,Unknown,0,2013-04-28 10:15:00
6:35 AM,30.2,26.6,86,30.27,-9999.0,Calm,Calm,-,N/A,,Unknown,0,2013-04-28 10:35:00
6:55 AM,30.2,26.6,86,30.27,10.0,Calm,Calm,-,N/A,,Clear,0,2013-04-28 10:55:00
7:35 AM,35.6,28.4,75,30.27,10.0,Calm,Calm,-,N/A,,Clear,0,2013-04-28 11:35:00
7:55 AM,39.2,28.4,65,30.27,10.0,Calm,Calm,-,N/A,,Clear,0,2013-04-28 11:55:00
8:15 AM,41.0,28.4,61,30.27,10.0,Calm,Calm,-,N/A,,Clear,0,2013-04-28 12:15:00
8:35 AM,42.8,26.6,53,30.27,10.0,Calm,Calm,-,N/A,,Clear,0,2013-04-28 12:35:00
8:55 AM,46.4,28.4,50,30.26,10.0,Calm,Calm,-,N/A,,Clear,0,2013-04-28 12:55:00
9:15 AM,48.2,26.6,43,30.26,10.0,ESE,3.5,-,N/A,,Clear,120,2013-04-28 13:15:00
9:35 AM,50.0,26.6,40,30.26,10.0,Calm,Calm,-,N/A,,Clear,0,2013-04-28 13:35:00
9:55 AM,53.6,28.4,38,30.27,10.0,NNE,3.5,-,N/A,,Clear,30,2013-04-28 13:55:00
10:15 AM,53.6,26.6,35,30.26,10.0,Calm,Calm,-,N/A,,Clear,0,2013-04-28 14:15:00
10:35 AM,55.4,26.6,33,30.26,10.0,Calm,Calm,-,N/A,,Clear,0,2013-04-28 14:35:00
10:55 AM,57.2,26.6,31,30.25,10.0,Calm,Calm,-,N/A,,Clear,0,2013-04-28 14:55:00
11:35 AM,60.8,26.6,27,30.24,10.0,Calm,Calm,-,N/A,,Clear,0,2013-04-28 15:35:00
11:55 AM,62.6,24.8,24,30.23,10.0,Calm,Calm,-,N/A,,Clear,0,2013-04-28 15:55:00
12:15 PM,62.6,24.8,24,30.23,8.0,South,3.5,-,N/A,,Clear,190,2013-04-28 16:15:00
12:35 PM,62.6,24.8,24,30.22,10.0,NW,5.8,-,N/A,,Clear,310,2013-04-28 16:35:00
12:55 PM,62.6,24.8,24,30.21,5.0,SE,3.5,-,N/A,,Clear,130,2013-04-28 16:55:00
1:15 PM,62.6,26.6,26,30.20,6.0,WNW,3.5,-,N/A,,Clear,300,2013-04-28 17:15:00
1:35 PM,64.4,24.8,22,30.20,5.0,East,4.6,-,N/A,,Clear,100,2013-04-28 17:35:00
2:15 PM,66.2,24.8,21,30.19,5.0,Calm,Calm,-,N/A,,Clear,0,2013-04-28 18:15:00
2:35 PM,64.4,24.8,22,30.18,4.0,South,6.9,-,N/A,,Clear,190,2013-04-28 18:35:00
2:55 PM,64.4,24.8,22,30.18,5.0,SE,4.6,-,N/A,,Clear,140,2013-04-28 18:55:00
3:15 PM,66.2,24.8,21,30.17,9.0,NW,4.6,-,N/A,,Clear,320,2013-04-28 19:15:00
3:35 PM,66.2,24.8,21,30.16,7.0,WSW,3.5,-,N/A,,Clear,250,2013-04-28 19:35:00
3:55 PM,66.2,24.8,21,30.15,10.0,SSW,5.8,-,N/A,,Clear,200,2013-04-28 19:55:00
4:15 PM,66.2,24.8,21,30.15,5.0,Calm,Calm,-,N/A,,Clear,0,2013-04-28 20:15:00
4:35 PM,66.2,23.0,19,30.15,6.0,WSW,9.2,-,N/A,,Clear,240,2013-04-28 20:35:00
4:55 PM,66.2,24.8,21,30.15,9.0,West,8.1,-,N/A,,Clear,280,2013-04-28 20:55:00
5:15 PM,66.2,24.8,21,30.14,10.0,NE,3.5,-,N/A,,Clear,50,2013-04-28 21:15:00
5:35 PM,66.2,24.8,21,30.13,10.0,ENE,4.6,-,N/A,,Clear,60,2013-04-28 21:35:00
5:55 PM,66.2,24.8,21,30.13,10.0,ENE,6.9,-,N/A,,Clear,70,2013-04-28 21:55:00
6:15 PM,66.2,26.6,23,30.13,10.0,ENE,8.1,-,N/A,,Clear,70,2013-04-28 22:15:00
6:35 PM,64.4,26.6,24,30.13,10.0,ESE,4.6,-,N/A,,Clear,120,2013-04-28 22:35:00
6:55 PM,64.4,26.6,24,30.13,10.0,ESE,8.1,-,N/A,,Clear,120,2013-04-28 22:55:00
7:15 PM,62.6,26.6,26,30.13,10.0,SE,6.9,-,N/A,,Clear,130,2013-04-28 23:15:00
7:35 PM,60.8,26.6,27,30.13,10.0,ESE,4.6,-,N/A,,Clear,120,2013-04-28 23:35:00
7:55 PM,60.8,26.6,27,30.13,10.0,ESE,4.6,-,N/A,,Clear,120,2013-04-28 23:55:00
8:15 PM,55.4,26.6,33,30.14,10.0,Calm,Calm,-,N/A,,Clear,0,2013-04-29 00:15:00
8:35 PM,55.4,26.6,33,30.14,10.0,Calm,Calm,-,N/A,,Clear,0,2013-04-29 00:35:00
8:55 PM,51.8,26.6,38,30.15,10.0,Calm,Calm,-,N/A,,Clear,0,2013-04-29 00:55:00
9:15 PM,51.8,28.4,41,30.15,10.0,Calm,Calm,-,N/A,,Clear,0,2013-04-29 01:15:00
9:35 PM,50.0,28.4,43,30.15,10.0,Calm,Calm,-,N/A,,Clear,0,2013-04-29 01:35:00
9:55 PM,44.6,30.2,57,30.15,10.0,Calm,Calm,-,N/A,,Clear,0,2013-04-29 01:55:00
10:15 PM,44.6,30.2,57,30.15,10.0,Calm,Calm,-,N/A,,Clear,0,2013-04-29 02:15:00
10:35 PM,42.8,28.4,57,30.15,10.0,Calm,Calm,-,N/A,,Clear,0,2013-04-29 02:35:00
10:55 PM,41.0,30.2,65,30.15,10.0,Calm,Calm,-,N/A,,Clear,0,2013-04-29 02:55:00
11:15 PM,41.0,30.2,65,30.15,10.0,Calm,Calm,-,N/A,,Clear,0,2013-04-29 03:15:00
11:35 PM,37.4,30.2,75,30.16,10.0,South,3.5,-,N/A,,Clear,180,2013-04-29 03:35:00